Regional Weather Roundup
Issued by NWS Upton, NY

Current Version | Previous Version | Text Only | Print | Product List | Glossary Off
Versions: 1 2 3 4 5 6 7 8 9 10 11 12 13 14 15 16 17 18 19 20 21 22 23 24 25 26 27 28 29 30 31 32 33 34 35 36 37 38 39 40 41 42 43 44 45 46 47 48 49 50
000 ASUS41 KOKX 280708 RWROKX REGIONAL WEATHER ROUNDUP NATIONAL WEATHER SERVICE NEW YORK NY 300 AM EDT TUE MAR 28 2017 NOTE: "FAIR" INDICATES FEW OR NO CLOUDS BELOW 12,000 FEET WITH NO SIGNIFICANT WEATHER AND/OR OBSTRUCTIONS TO VISIBILITY. NYZ071-072-176-178-NJZ106-104-280800- NEW YORK CITY METRO AREA CITY SKY/WX TMP DP RH WIND PRES REMARKS Central Park CLOUDY 44 43 96 E7 29.98F FOG Wall St Helipt CLOUDY 45 43 93 NE10 29.97F LaGuardia APRT FOG 43 40 89 NE10 29.96F VSB 1/4 Kennedy INTL CLOUDY 48 45 89 NE8 29.97F Breezy Point N/A 41 N/A N/A E8 N/A Newark/Liberty MOCLDY 46 44 93 N8 29.96F FOG Teterboro LGT RAIN 45 43 93 NE6 29.96S $$ NYZ177-179-078>081-280800- LONG ISLAND NEW YORK CITY SKY/WX TMP DP RH WIND PRES REMARKS Jones Beach N/A 41 N/A N/A E8 N/A Matinecock PT N/A 41 N/A N/A E10 N/A Farmingdale CLOUDY 43 43 100 E6 29.96F FOG MacArthur/ISP CLOUDY 43 43 100 NE6 29.96F FOG Shirley CLOUDY 41 41 100 VRB3 29.97F FOG Westhampton CLOUDY 40 39 97 NE6 30.00F East Hampton FOG 39 39 99 CALM 29.99F VSB 1/2 Montauk N/A 41 41 100 CALM 30.01 $$ NYZ052-065-067-280800- HUDSON VALLEY CITY SKY/WX TMP DP RH WIND PRES REMARKS White Plains LGT RAIN 41 40 96 E3 29.95F VSB 1/2 Newburgh LGT RAIN 41 41 100 CALM 29.96F FOG Montgomery CLOUDY 39 37 92 CALM 29.94S FOG Poughkeepsie CLOUDY 37 37 100 CALM 29.95F FOG Albany CLOUDY 44 40 85 CALM 29.96F $$ NJZ001-105-106-008-010-013-015-019>022-104-280800- NEW JERSEY CITY SKY/WX TMP DP RH WIND PRES REMARKS Newark/Liberty MOCLDY 46 44 93 N8 29.96F FOG Teterboro LGT RAIN 45 43 93 NE6 29.96S Caldwell CLOUDY 46 44 93 CALM 29.96S FOG Somerville CLOUDY 48 47 96 CALM 29.92F FOG Linden PTSUNNY 49 45 88 CALM 29.96S Sussex RAIN 42 41 96 VRB5 29.94F FOG Andover N/A 44 43 96 CALM 29.94F Trenton TSTM 49 49 100 VRB7 29.92S FOG Millville CLOUDY 55 54 96 SE3 29.90F Atlantic City CLOUDY 52 47 83 CALM 29.91F Wrightstown CLOUDY 50 49 98 E7 29.90F Toms River FOG 48 48 100 E7 29.94F VSB 1/2 Belmar LGT RAIN 47 47 100 E12 29.95F VSB 1/2 $$ PAZ047>061-062-071-280800- EASTERN PENNSYLVANIA CITY SKY/WX TMP DP RH WIND PRES REMARKS Philadelphia CLOUDY 51 49 92 NE3 29.92F FOG Allentown MOCLDY 45 43 93 CALM 29.93F FOG Scranton CLOUDY 48 47 96 E3 29.89F FOG $$ CTZ002-004>006-009-010-012-RIZ004-006-007-MAZ004-011-015-280800- SOUTHERN NEW ENGLAND IN CT CITY SKY/WX TMP DP RH WIND PRES REMARKS Bradley INTL CLOUDY 38 38 100 CALM 29.99F Hartford CLOUDY 39 38 96 CALM 30.00F FOG Danbury FOG 42 42 100 CALM 29.98F VSB 1/2 Wtrbury/Oxford CLOUDY 37 36 93 S3 29.98F VSB 1/4 Bridgeport CLOUDY 41 39 93 E9 29.98F FOG Meriden CLOUDY 41 39 93 CALM 29.99F FOG New Haven CLOUDY 40 39 97 NE5 29.99F Chester NOT AVBL Groton CLOUDY 41 39 93 N7 30.00F Wilimantic FOG 42 41 96 CALM 30.00F VSB 1/4 IN RI CITY SKY/WX TMP DP RH WIND PRES REMARKS Providence CLOUDY 40 38 93 N7 30.02S Block Island LGT RAIN 40 40 100 NE5 30.01F VSB 1/4 Westerly CLOUDY 42 41 96 CALM 30.00F IN MA CITY SKY/WX TMP DP RH WIND PRES REMARKS Boston CLOUDY 36 36 100 N6 30.03F WCI 31 Worcester FOG 35 33 92 CALM 29.98F VSB 1/4 Westfield CLOUDY 38 38 100 CALM 29.99F FOG Provincetown CLOUDY 37 36 96 N10 30.03S WCI 30 Nantucket FOG 37 36 96 N13 30.00F VSB 3/4 WCI 29 $$ ANZ330-335-338-340-345-350-353-355-280800- COASTAL MARINE OBSERVATIONS STATION/POSITION TIME SKY/WX TEMP WIND PRES VSBY WAVE AIR SEA DIR/SP/G HT/PER (UTC) (F) (DEG/KT/KT) (MB) (MI) (FT/S) NY HARB ENTRANCE 0550 43 42 90/ 10/ 12 1015.2 3/ 6 20 S FIRE ISLAND 0650 42 41 80/ 12/ 14 1014.5 3/ 8 GREAT SOUTH BAY NOT AVBL 23 SSW MONTAUK P 0550 41 42 1016.7 3/ 8 15 E BARNEGAT LI 0630 44 N/A 3/17 HUDSON CANYON 0550 46 45 80/ 4/ 4 1016.0 4/ 7 KINGS POINT 0636 39 39 1015.0 EXECUTION ROCKS NOT AVBL CENTRAL LI SOUND 0630 39 60/ 4/ 6 N/A 0 EASTERN LI SOUND NOT AVBL ROBBINS REEF 0636 48 50/ 10/ 11 1014.6 $$ >>>>>>>>>>>>>>>>>>>>>>>>>>>> KEY <<<<<<<<<<<<<<<<<<<<<<<<<<< > < > SKY/WX - Sky Condition/Present Weather < > TMP - Temperature in Fahrenheit < > DP - Dew Point in Fahrenheit < > RH - Relative Humidity in Percent < > WIND - Direction (from) and Speed in MPH < > PRES - Mean Sea Level Pressure (inches of Hg) < > WCI - Wind Chill Index < > VSB - VISIBILITY IN MILES < > HX - HEAT INDEX < > TC - TEMPERATURE IN CELSIUS < > VRB - VARIABLE WIND DIRECTION < > < >>>>>>>>>>>>>>>>>>>>>>>>>>>> KEY <<<<<<<<<<<<<<<<<<<<<<<<<<<

USA.gov is the U.S. government's official web portal to all federal, state and local government web resources and services.